TimeCST,TemperatureF,Dew PointF,Humidity,Sea Level PressureIn,VisibilityMPH,Wind Direction,Wind SpeedMPH,Gust SpeedMPH,PrecipitationIn,Events,Conditions,WindDirDegrees,DateUTC
12:12 AM,18.1,12.9,80,30.09,10.0,SSW,3.5,-,N/A,,Clear,210,2013-01-04 06:12:00
12:32 AM,19.0,13.6,79,30.07,10.0,SW,6.9,-,N/A,,Clear,230,2013-01-04 06:32:00
12:52 AM,20.3,14.2,77,30.05,10.0,SW,6.9,-,N/A,,Clear,220,2013-01-04 06:52:00
1:12 AM,21.0,14.5,76,30.05,10.0,SW,5.8,-,N/A,,Clear,230,2013-01-04 07:12:00
1:32 AM,21.7,14.9,75,30.04,10.0,SW,8.1,-,N/A,,Clear,230,2013-01-04 07:32:00
1:52 AM,21.9,15.1,75,30.04,10.0,WSW,9.2,-,N/A,,Clear,240,2013-01-04 07:52:00
2:12 AM,22.1,15.1,74,30.04,10.0,WSW,6.9,-,N/A,,Clear,240,2013-01-04 08:12:00
2:32 AM,21.7,14.9,75,30.04,10.0,West,6.9,-,N/A,,Clear,260,2013-01-04 08:32:00
2:52 AM,21.9,14.9,74,30.04,10.0,WSW,10.4,18.4,N/A,,Clear,250,2013-01-04 08:52:00
3:12 AM,22.1,15.1,74,30.03,10.0,WSW,9.2,-,N/A,,Clear,250,2013-01-04 09:12:00
3:32 AM,22.6,15.3,73,30.02,10.0,WSW,8.1,-,N/A,,Clear,250,2013-01-04 09:32:00
3:52 AM,22.6,15.1,73,30.02,10.0,WSW,5.8,-,N/A,,Clear,240,2013-01-04 09:52:00
4:12 AM,22.5,15.1,73,30.01,10.0,WSW,5.8,-,N/A,,Clear,240,2013-01-04 10:12:00
4:32 AM,22.5,14.9,73,30.01,10.0,WSW,3.5,-,N/A,,Clear,250,2013-01-04 10:32:00
4:52 AM,22.1,14.7,73,30.02,10.0,West,5.8,-,N/A,,Clear,260,2013-01-04 10:52:00
5:12 AM,22.1,14.9,74,30.02,10.0,West,4.6,-,N/A,,Clear,270,2013-01-04 11:12:00
5:32 AM,21.4,14.4,74,30.02,10.0,West,5.8,-,N/A,,Clear,260,2013-01-04 11:32:00
6:12 AM,21.6,14.5,74,30.03,10.0,West,8.1,-,N/A,,Clear,260,2013-01-04 12:12:00
6:32 AM,21.2,14.4,75,30.03,10.0,West,9.2,-,N/A,,Clear,260,2013-01-04 12:32:00
6:52 AM,21.7,14.7,74,30.02,10.0,West,10.4,-,N/A,,Clear,260,2013-01-04 12:52:00
7:12 AM,21.9,14.7,74,30.02,10.0,WSW,11.5,-,N/A,,Clear,250,2013-01-04 13:12:00
7:32 AM,21.9,14.5,73,30.02,10.0,WSW,9.2,-,N/A,,Clear,250,2013-01-04 13:32:00
7:52 AM,22.1,14.5,73,30.03,10.0,West,6.9,-,N/A,,Clear,260,2013-01-04 13:52:00
8:12 AM,22.5,14.5,72,30.04,10.0,West,4.6,-,N/A,,Clear,280,2013-01-04 14:12:00
8:32 AM,22.5,14.5,72,30.04,10.0,West,5.8,-,N/A,,Clear,260,2013-01-04 14:32:00
8:52 AM,22.5,14.4,71,30.05,10.0,West,5.8,-,N/A,,Clear,280,2013-01-04 14:52:00
9:12 AM,23.0,14.5,70,30.06,10.0,West,6.9,-,N/A,,Clear,280,2013-01-04 15:12:00
9:32 AM,23.5,14.5,69,30.07,10.0,West,5.8,-,N/A,,Clear,280,2013-01-04 15:32:00
9:52 AM,24.3,14.9,68,30.07,10.0,West,5.8,-,N/A,,Clear,270,2013-01-04 15:52:00
10:12 AM,24.6,14.5,66,30.08,10.0,West,9.2,-,N/A,,Clear,270,2013-01-04 16:12:00
10:32 AM,25.5,14.9,64,30.08,10.0,West,5.8,-,N/A,,Clear,270,2013-01-04 16:32:00
10:52 AM,25.7,14.9,64,30.08,10.0,WNW,6.9,-,N/A,,Clear,290,2013-01-04 16:52:00
11:12 AM,26.2,15.1,63,30.08,10.0,West,6.9,-,N/A,,Clear,260,2013-01-04 17:12:00
11:32 AM,26.8,15.6,63,30.08,10.0,West,5.8,-,N/A,,Clear,270,2013-01-04 17:32:00
11:52 AM,27.5,15.6,61,30.08,10.0,West,4.6,-,N/A,,Clear,280,2013-01-04 17:52:00
12:12 PM,28.2,16.0,60,30.08,10.0,West,6.9,-,N/A,,Clear,280,2013-01-04 18:12:00
12:32 PM,28.6,15.6,58,30.08,10.0,West,5.8,-,N/A,,Clear,280,2013-01-04 18:32:00
12:52 PM,28.9,16.0,58,30.08,10.0,WSW,4.6,-,N/A,,Clear,250,2013-01-04 18:52:00
1:12 PM,29.3,16.2,58,30.07,10.0,West,5.8,-,N/A,,Clear,260,2013-01-04 19:12:00
1:32 PM,29.7,16.5,58,30.07,10.0,WSW,6.9,-,N/A,,Clear,250,2013-01-04 19:32:00
1:52 PM,30.0,16.9,58,30.07,10.0,WSW,4.6,-,N/A,,Clear,250,2013-01-04 19:52:00
2:12 PM,30.6,16.9,57,30.07,10.0,WSW,4.6,-,N/A,,Clear,250,2013-01-04 20:12:00
2:32 PM,30.9,17.2,57,30.07,10.0,WSW,5.8,-,N/A,,Clear,240,2013-01-04 20:32:00
2:52 PM,30.9,17.2,57,30.08,10.0,WSW,6.9,-,N/A,,Clear,250,2013-01-04 20:52:00
3:12 PM,30.9,17.1,57,30.08,10.0,West,3.5,-,N/A,,Clear,270,2013-01-04 21:12:00
3:32 PM,30.6,17.4,58,30.09,10.0,WSW,5.8,-,N/A,,Clear,240,2013-01-04 21:32:00
3:52 PM,30.4,17.2,58,30.09,10.0,West,5.8,-,N/A,,Clear,260,2013-01-04 21:52:00
4:12 PM,30.0,17.4,59,30.10,10.0,WSW,4.6,-,N/A,,Clear,250,2013-01-04 22:12:00
4:32 PM,29.3,17.4,61,30.11,10.0,WSW,4.6,-,N/A,,Clear,250,2013-01-04 22:32:00
4:52 PM,28.4,17.1,63,30.12,10.0,West,5.8,-,N/A,,Clear,260,2013-01-04 22:52:00
5:32 PM,27.5,16.5,63,30.11,10.0,West,6.9,-,N/A,,Clear,260,2013-01-04 23:32:00
5:52 PM,26.6,16.3,65,30.11,10.0,West,5.8,-,N/A,,Clear,270,2013-01-04 23:52:00
6:12 PM,25.7,15.8,66,30.11,10.0,Calm,Calm,-,N/A,,Clear,0,2013-01-05 00:12:00
6:32 PM,25.0,15.6,68,30.12,10.0,Calm,Calm,-,N/A,,Clear,0,2013-01-05 00:32:00
6:52 PM,24.8,15.6,68,30.12,10.0,Calm,Calm,-,N/A,,Clear,0,2013-01-05 00:52:00
7:12 PM,23.9,15.4,70,30.12,10.0,Calm,Calm,-,N/A,,Clear,0,2013-01-05 01:12:00
7:32 PM,22.6,15.8,75,30.11,10.0,Calm,Calm,-,N/A,,Clear,0,2013-01-05 01:32:00
7:52 PM,21.4,14.9,76,30.11,10.0,Calm,Calm,-,N/A,,Clear,0,2013-01-05 01:52:00
8:12 PM,19.4,14.0,80,30.11,10.0,Calm,Calm,-,N/A,,Clear,0,2013-01-05 02:12:00
8:32 PM,19.8,14.4,80,30.12,10.0,SSE,3.5,-,N/A,,Clear,160,2013-01-05 02:32:00
8:52 PM,18.0,13.8,84,30.12,10.0,Calm,Calm,-,N/A,,Clear,0,2013-01-05 02:52:00
9:12 PM,19.8,14.2,79,30.12,10.0,Calm,Calm,-,N/A,,Clear,0,2013-01-05 03:12:00
9:32 PM,17.1,13.3,85,30.12,10.0,Calm,Calm,-,N/A,,Clear,0,2013-01-05 03:32:00
9:52 PM,16.2,12.0,84,30.12,10.0,Calm,Calm,-,N/A,,Clear,0,2013-01-05 03:52:00
10:12 PM,17.8,14.5,87,30.12,10.0,Calm,Calm,-,N/A,,Clear,0,2013-01-05 04:12:00
10:32 PM,17.6,12.7,81,30.13,10.0,Calm,Calm,-,N/A,,Clear,0,2013-01-05 04:32:00
10:52 PM,14.7,11.3,86,30.11,10.0,Calm,Calm,-,N/A,,Clear,0,2013-01-05 04:52:00
11:12 PM,14.5,11.5,88,30.10,10.0,Calm,Calm,-,N/A,,Clear,0,2013-01-05 05:12:00
11:32 PM,16.7,13.8,88,30.09,10.0,Calm,Calm,-,N/A,,Clear,0,2013-01-05 05:32:00
11:52 PM,13.8,10.9,88,30.08,10.0,Calm,Calm,-,N/A,,Clear,0,2013-01-05 05:52:00